Terug naar catalogus

CZ-6A DEB

ActiefPO
NORAD 64646·DEBRIS·🇨🇳 China

Gelanceerd Aug 6, 2024 vanaf Taiyuan Satellite Launch Center

Loading…

Volgende Passages (komende 24 uur)

TLE

VersSource: Space-Track

Epoch: Sep 14, 2026, 06:01 UTC

1 64646U 24140AEL 26257.25135835  .00005938  00000-0  15402-2 0  9990
2 64646  88.2083 188.1707 0057255 274.7983  84.6687 14.48675682101500

Volg CZ-6A DEB in realtime met AllMySat

Download on the App Store